When you browse on this site, cookies collect data to enhance your experience and personalize the content and advertising you see.
Visit our Privacy Policy to learn more. By continuing to use the site, you agree to this use of cookies and data.
  • Em Portugal
  • Lista de países
  • Para 7 dias
  • Temperatura da água
  • Mapas de satélite
  • Mapa do tempo
  • Widgets de tempo
  • user-avatar
    Iniciar Sessão

    Previsão horária em Sur

    Hoje, 17 Janeiro, Quinta-feira

    Tempo Temperatura Precipitação Vento Pressão Humidade
    00:00 +9°C° 1.2 mm 11 m/s 757 mmHg 75%
    01:00 +11°C° 1.2 mm 11 m/s 758 mmHg 74%
    02:00 +11°C° 1.2 mm 10 m/s 758 mmHg 73%
    03:00 +11°C° 0.2 mm 9 m/s 759 mmHg 72%
    04:00 +11°C° 0.2 mm 9 m/s 759 mmHg 71%
    05:00 +11°C° 0.2 mm 8 m/s 760 mmHg 70%
    06:00 +11°C° 0 mm 8 m/s 761 mmHg 69%
    07:00 +11°C° 0 mm 7 m/s 761 mmHg 68%
    08:00 +11°C° 0 mm 7 m/s 762 mmHg 67%
    09:00 +12°C° 0 mm 7 m/s 762 mmHg 64%
    10:00 +14°C° 0 mm 7 m/s 763 mmHg 62%
    11:00 +14°C° 0 mm 7 m/s 763 mmHg 59%
    12:00 +14°C° 0 mm 7 m/s 763 mmHg 59%
    13:00 +14°C° 0 mm 6 m/s 763 mmHg 59%
    14:00 +14°C° 0 mm 5 m/s 763 mmHg 59%
    15:00 +13°C° 0 mm 5 m/s 763 mmHg 61%
    16:00 +12°C° 0 mm 4 m/s 764 mmHg 62%
    17:00 +11°C° 0 mm 3 m/s 764 mmHg 64%
    18:00 +11°C° 0 mm 3 m/s 764 mmHg 64%
    19:00 +12°C° 0 mm 2 m/s 764 mmHg 64%
    20:00 +10°C° 0 mm 2 m/s 765 mmHg 64%
    21:00 +10°C° 0 mm 2 m/s 765 mmHg 64%
    22:00 +10°C° 0 mm 2 m/s 765 mmHg 65%
    23:00 +10°C° 0 mm 2 m/s 765 mmHg 66%

    Amanhã, 18 Janeiro, Sexta-feira

    Tempo Temperatura Precipitação Vento Pressão Humidade
    00:00 +10°C° 0 mm 2 m/s 765 mmHg 67%
    01:00 +10°C° 0 mm 2 m/s 765 mmHg 68%
    02:00 +10°C° 0 mm 2 m/s 765 mmHg 69%
    03:00 +10°C° 0 mm 3 m/s 765 mmHg 71%
    04:00 +10°C° 0 mm 3 m/s 765 mmHg 73%
    05:00 +10°C° 0 mm 3 m/s 765 mmHg 75%
    06:00 +10°C° 0 mm 3 m/s 765 mmHg 75%
    07:00 +12°C° 0 mm 2 m/s 766 mmHg 75%
    08:00 +13°C° 0 mm 2 m/s 766 mmHg 75%
    09:00 +13°C° 0 mm 2 m/s 766 mmHg 72%
    10:00 +14°C° 0 mm 2 m/s 766 mmHg 68%
    11:00 +15°C° 0 mm 2 m/s 767 mmHg 65%
    12:00 +15°C° 0 mm 2 m/s 766 mmHg 63%
    13:00 +16°C° 0 mm 2 m/s 766 mmHg 62%
    14:00 +16°C° 0 mm 2 m/s 766 mmHg 61%
    15:00 +15°C° 0 mm 2 m/s 766 mmHg 63%
    16:00 +14°C° 0 mm 2 m/s 766 mmHg 65%
    17:00 +13°C° 0 mm 1 m/s 766 mmHg 67%
    18:00 +13°C° 0 mm 1 m/s 766 mmHg 68%
    19:00 +13°C° 0 mm 1 m/s 767 mmHg 69%
    20:00 +12°C° 0 mm 1 m/s 767 mmHg 70%
    21:00 +12°C° 0 mm 1 m/s 767 mmHg 70%
    22:00 +12°C° 0 mm 1 m/s 767 mmHg 70%
    23:00 +12°C° 0 mm 1 m/s 767 mmHg 70%

    Depois de amanhã, 19 Janeiro, Sábado

    Tempo Temperatura Precipitação Vento Pressão Humidade
    00:00 +12°C° 0 mm 1 m/s 767 mmHg 70%
    01:00 +12°C° 0 mm 1 m/s 767 mmHg 70%
    02:00 +10°C° 0 mm 2 m/s 767 mmHg 70%
    03:00 +10°C° 0 mm 2 m/s 767 mmHg 70%
    04:00 +10°C° 0 mm 2 m/s 767 mmHg 70%
    05:00 +10°C° 0 mm 2 m/s 766 mmHg 70%
    06:00 +12°C° 0 mm 2 m/s 767 mmHg 69%
    07:00 +11°C° 0 mm 3 m/s 767 mmHg 68%
    08:00 +11°C° 0 mm 3 m/s 767 mmHg 67%
    09:00 +14°C° 0 mm 2 m/s 767 mmHg 61%
    10:00 +15°C° 0 mm 2 m/s 767 mmHg 56%
    11:00 +16°C° 0 mm 1 m/s 767 mmHg 50%
    12:00 +16°C° 0 mm 1 m/s 767 mmHg 49%
    13:00 +16°C° 0 mm 1 m/s 766 mmHg 47%
    14:00 +18°C° 0 mm 1 m/s 765 mmHg 46%
    15:00 +16°C° 0 mm 2 m/s 765 mmHg 50%
    16:00 +15°C° 0 mm 2 m/s 765 mmHg 55%
    17:00 +13°C° 0 mm 3 m/s 765 mmHg 59%
    18:00 +13°C° 0 mm 3 m/s 765 mmHg 59%
    19:00 +14°C° 0 mm 2 m/s 766 mmHg 58%
    20:00 +13°C° 0 mm 2 m/s 766 mmHg 58%
    21:00 +13°C° 0 mm 2 m/s 766 mmHg 57%
    22:00 +13°C° 0 mm 2 m/s 766 mmHg 55%
    23:00 +13°C° 0 mm 2 m/s 766 mmHg 54%

    20 Janeiro, Domingo

    Tempo Temperatura Precipitação Vento Pressão Humidade
    00:00 +13°C° 0 mm 2 m/s 766 mmHg 54%
    01:00 +13°C° 0 mm 2 m/s 766 mmHg 54%
    02:00 +11°C° 0 mm 3 m/s 766 mmHg 53%
    03:00 +12°C° 0 mm 2 m/s 765 mmHg 53%
    04:00 +12°C° 0 mm 2 m/s 765 mmHg 53%
    05:00 +12°C° 0 mm 2 m/s 765 mmHg 53%
    06:00 +13°C° 0 mm 2 m/s 765 mmHg 54%
    07:00 +13°C° 0 mm 2 m/s 766 mmHg 55%
    08:00 +14°C° 0 mm 2 m/s 766 mmHg 56%
    09:00 +15°C° 0 mm 2 m/s 766 mmHg 50%
    10:00 +16°C° 0 mm 1 m/s 766 mmHg 45%
    11:00 +19°C° 0 mm 1 m/s 766 mmHg 39%
    12:00 +19°C° 0 mm 1 m/s 765 mmHg 40%
    13:00 +18°C° 0 mm 2 m/s 764 mmHg 40%
    14:00 +18°C° 0 mm 2 m/s 764 mmHg 40%
    15:00 +17°C° 0 mm 3 m/s 764 mmHg 44%
    16:00 +17°C° 0 mm 3 m/s 764 mmHg 47%
    17:00 +16°C° 0 mm 3 m/s 764 mmHg 50%
    18:00 +16°C° 0 mm 3 m/s 764 mmHg 49%
    19:00 +15°C° 0 mm 2 m/s 764 mmHg 47%
    20:00 +15°C° 0 mm 2 m/s 765 mmHg 45%
    21:00 +15°C° 0 mm 2 m/s 765 mmHg 45%
    22:00 +15°C° 0 mm 1 m/s 765 mmHg 44%
    23:00 +14°C° 0 mm 1 m/s 765 mmHg 44%

    21 Janeiro, Segunda-feira

    Tempo Temperatura Precipitação Vento Pressão Humidade
    00:00 +14°C° 0 mm 1 m/s 764 mmHg 44%
    01:00 +14°C° 0 mm 1 m/s 764 mmHg 45%
    02:00 +14°C° 0 mm 1 m/s 764 mmHg 45%
    03:00 +14°C° 0 mm 1 m/s 764 mmHg 47%
    04:00 +14°C° 0 mm 1 m/s 764 mmHg 49%
    05:00 +13°C° 0 mm 1 m/s 764 mmHg 52%
    06:00 +14°C° 0 mm 1 m/s 764 mmHg 54%
    07:00 +14°C° 0 mm 2 m/s 765 mmHg 56%
    08:00 +15°C° 0 mm 2 m/s 765 mmHg 58%
    09:00 +16°C° 0 mm 2 m/s 765 mmHg 56%
    10:00 +16°C° 0 mm 2 m/s 765 mmHg 54%
    11:00 +17°C° 0 mm 2 m/s 765 mmHg 52%
    12:00 +17°C° 0 mm 2 m/s 765 mmHg 52%
    13:00 +18°C° 0 mm 2 m/s 764 mmHg 53%
    14:00 +18°C° 0 mm 2 m/s 764 mmHg 53%
    15:00 +17°C° 0 mm 2 m/s 764 mmHg 56%
    16:00 +16°C° 0 mm 2 m/s 764 mmHg 59%
    17:00 +15°C° 0 mm 1 m/s 764 mmHg 63%
    18:00 +15°C° 0 mm 1 m/s 765 mmHg 62%
    19:00 +14°C° 0 mm 1 m/s 765 mmHg 62%
    20:00 +14°C° 0 mm 1 m/s 765 mmHg 62%
    21:00 +14°C° 0 mm 1 m/s 765 mmHg 62%
    22:00 +13°C° 0 mm 1 m/s 765 mmHg 62%
    23:00 +13°C° 0 mm 1 m/s 765 mmHg 62%

    22 Janeiro, Terça-feira

    Tempo Temperatura Precipitação Vento Pressão Humidade
    00:00 +13°C° 0 mm 1 m/s 765 mmHg 63%
    01:00 +13°C° 0 mm 1 m/s 765 mmHg 64%
    02:00 +13°C° 0 mm 2 m/s 765 mmHg 65%
    03:00 +13°C° 0 mm 2 m/s 765 mmHg 65%
    04:00 +13°C° 0 mm 2 m/s 765 mmHg 65%
    05:00 +12°C° 0 mm 2 m/s 765 mmHg 65%
    06:00 +13°C° 0 mm 2 m/s 765 mmHg 64%
    07:00 +12°C° 0 mm 3 m/s 766 mmHg 63%
    08:00 +13°C° 0 mm 3 m/s 766 mmHg 62%
    09:00 +15°C° 0 mm 2 m/s 766 mmHg 57%
    10:00 +16°C° 0 mm 2 m/s 766 mmHg 52%
    11:00 +17°C° 0 mm 2 m/s 766 mmHg 47%
    12:00 +17°C° 0 mm 2 m/s 765 mmHg 47%
    13:00 +18°C° 0 mm 2 m/s 765 mmHg 48%
    14:00 +18°C° 0 mm 2 m/s 764 mmHg 48%
    15:00 +18°C° 0 mm 1 m/s 765 mmHg 54%
    16:00 +16°C° 0 mm 1 m/s 765 mmHg 60%
    17:00 +15°C° 0 mm 1 m/s 765 mmHg 66%
    18:00 +14°C° 0 mm 1 m/s 765 mmHg 66%
    19:00 +14°C° 0 mm 1 m/s 765 mmHg 67%
    20:00 +14°C° 0 mm 1 m/s 765 mmHg 67%
    21:00 +14°C° 0 mm 1 m/s 765 mmHg 65%
    22:00 +13°C° 0 mm 1 m/s 765 mmHg 64%
    23:00 +13°C° 0 mm 2 m/s 765 mmHg 63%
    Mostrar mais